{"data":{"norad_id":59004,"intl_designator":"2024-036G","name":"STARLINK-31435","alt_names":[],"object_type":"PAYLOAD","status":"ACTIVE","operator":null,"country":"US","launch_date":"2024-02-23","launch_site_code":"AFWTR","launch_vehicle":null,"mission":null,"orbit_class":"UNKNOWN","rcs_meters":null,"size_class":null,"mass_kg":null,"dimensions":null,"purposes":["comms"],"wikipedia_slug":null,"has_3d_model":false,"image_url":null,"decayed_at":null,"tle_current":{"epoch":"2026-05-25T02:05:54.084192Z","epoch_age_seconds":64802,"freshness":"FRESH","line1":"1 59004U 24036G   26145.08743153  .00001977  00000+0  78893-4 0  9994","line2":"2 59004  53.1601  83.0164 0001417  86.5236 273.5927 15.30186938127033","mean_motion":15.30186938,"eccentricity":0.0001417,"inclination_deg":53.1601,"raan_deg":83.0164,"arg_perigee_deg":86.5236,"mean_anomaly_deg":273.5927,"bstar":7.8893e-5,"rev_number":12703,"period_min":94.106149009619,"perigee_km":474.28294495963,"apogee_km":476.225195989,"semimajor_km":6853.3910704743,"source":"CELESTRAK","updated_at":"2026-05-25T13:38:18.798563Z"}}}